Dewpoint
69 69 70 73 73 72 72 72 72 72 72 72 72 72 72 73 73 73 73 73 73 72 72 72 72 72 72 72 71 70 70 70 70 69 67 67 67 66 66 67 67 67 67 67 68 69 68 67 67 67 68 68 68 68 69 69 69 69 69 69 69 69 69 69 69 69 69 69 69 69 69 69 69 68 68 68 68 68 68 68 67 65 66 65 66
68 70 70 71 73 72 72 72 72 72 72 72 72 72 72 72 73 73 73 73 73 72 72 72 72 72 72 71 70 71 70 69 68 68 67 66 66 66 66 66 66 66 67 66 68 67 67 67 67 67 68 68 68 69 69 69 69 69 69 70 69 69 68 68 68 69 68 68 69 69 69 69 69 68 68 68 68 68 68 68 67 65 65 66 66
68 69 69 70 72 72 72 72 72 72 72 72 72 72 72 72 73 73 73 73 73 73 73 72 72 72 72 71 70 70 70 69 68 68 67 66 66 66 65 66 65 65 66 66 67 67 66 68 68 68 68 68 68 69 69 69 69 69 69 69 69 69 69 69 68 68 68 68 69 68 68 69 69 69 68 69 68 68 68 67 67 66 64 66 66
67 68 69 71 72 72 72 71 72 72 72 72 72 72 72 72 73 73 73 73 73 73 72 72 72 72 71 71 71 70 71 70 70 69 68 66 66 65 65 66 66 66 66 66 66 65 67 67 67 67 68 68 68 69 69 69 69 69 69 69 69 69 69 69 69 69 68 67 68 70 70 65 67 69 69 69 68 68 68 68 67 65 66 68 67
67 68 69 70 70 71 72 72 72 72 72 72 72 72 72 73 73 73 73 73 73 72 72 72 72 72 71 71 71 72 71 71 69 68 67 66 66 65 65 65 66 66 66 66 66 66 66 67 67 67 68 68 68 69 69 69 69 69 69 69 69 69 68 69 70 69 69 69 69 68 68 63 66 69 69 68 68 67 68 68 68 66 66 67 66
67 68 68 68 69 70 72 72 72 72 72 72 72 72 73 73 73 73 73 73 73 72 72 72 72 71 71 72 72 72 72 71 70 68 67 67 65 65 64 64 65 66 66 66 66 67 67 67 67 68 68 68 69 69 69 68 68 68 69 70 69 70 69 70 71 71 71 71 71 70 68 60 63 66 69 68 68 67 67 67 68 67 67 67 67
67 67 67 67 68 70 72 72 72 72 72 72 71 72 72 73 73 73 73 73 72 72 72 72 72 72 72 72 72 72 72 71 70 69 69 67 66 65 64 64 65 65 65 66 67 67 67 67 67 68 68 68 69 68 68 68 68 69 70 70 70 71 70 71 71 71 72 71 69 68 60 57 60 64 68 68 67 67 68 67 67 67 67 67 67
66 66 66 67 68 71 72 72 72 71 72 72 72 72 72 73 73 73 73 73 72 72 72 72 72 72 72 72 72 72 72 71 70 69 68 67 67 66 64 64 66 66 67 67 67 68 67 67 68 68 69 68 68 68 68 68 69 70 70 70 71 71 71 71 72 72 72 69 66 55 57 59 61 63 68 68 67 67 68 67 67 67 67 67 66
65 65 66 67 68 71 72 72 72 71 71 72 72 72 72 73 73 73 73 73 72 72 72 72 72 72 72 72 72 72 71 70 69 69 69 69 68 67 67 66 67 67 69 70 70 69 68 68 68 68 69 68 68 69 68 69 69 70 70 70 71 71 71 71 72 72 70 68 57 56 57 59 61 63 68 68 67 67 68 67 67 68 67 67 67
65 66 67 68 68 71 72 72 72 71 71 72 72 72 73 72 73 73 72 72 72 72 72 72 72 72 72 72 72 71 70 69 69 69 69 69 69 69 68 67 67 67 68 68 68 69 69 68 68 68 68 68 66 67 69 68 70 70 70 70 71 71 71 72 72 71 68 66 55 59 64 63 60 64 68 68 68 67 67 68 67 67 67 67 67
67 67 68 67 68 71 71 71 72 71 72 72 72 73 72 73 72 72 72 73 72 72 72 72 72 72 72 72 72 71 71 71 70 69 69 68 68 68 69 69 69 69 69 69 69 69 69 69 68 68 67 68 68 67 67 69 69 70 69 70 70 71 71 72 72 65 64 59 53 61 63 66 62 65 69 68 67 67 67 67 67 67 67 66 67
68 68 68 67 71 71 71 71 71 72 72 72 72 73 73 72 72 72 72 72 72 72 72 72 72 71 72 71 71 71 70 70 70 69 69 68 68 68 68 69 69 69 69 69 69 69 69 69 68 67 67 67 67 68 68 69 69 69 70 70 71 71 71 71 70 67 65 49 53 57 57 58 61 67 69 68 68 68 67 67 67 67 67 67 67
68 68 68 69 69 71 71 71 72 72 72 72 73 72 72 72 72 72 72 72 72 72 72 71 72 71 70 70 69 69 69 69 69 68 68 68 68 68 68 69 69 69 69 69 69 69 69 69 68 68 68 68 67 68 68 69 69 69 70 70 71 71 72 72 69 65 59 52 54 59 60 61 64 69 69 69 68 68 68 68 68 67 67 67 67
68 68 67 67 69 71 71 72 72 72 72 72 73 72 72 72 72 72 72 72 71 71 70 70 70 70 70 69 69 68 68 68 68 67 67 67 67 67 67 68 69 69 69 69 68 68 69 69 68 68 68 68 68 69 69 69 69 69 70 70 70 71 72 71 67 61 55 54 59 60 61 63 63 69 69 69 69 69 69 68 68 67 66 66 67
67 67 67 67 69 70 72 72 72 73 73 73 73 72 72 72 72 72 71 71 71 70 70 70 70 70 69 69 69 68 67 67 67 66 66 65 66 66 67 67 68 68 69 68 69 69 69 69 69 70 69 69 69 68 70 70 68 69 69 70 71 72 72 69 63 60 53 53 61 59 60 62 70 68 69 68 70 69 68 68 67 66 66 66 66
65 66 66 67 67 69 70 72 72 73 73 73 72 72 72 72 72 72 71 70 70 70 70 69 69 69 69 68 67 67 67 66 65 65 65 65 66 66 66 67 67 67 68 68 69 69 69 69 70 69 69 68 69 70 67 69 70 69 70 70 71 71 72 72 66 60 58 57 60 62 61 64 70 69 67 68 69 69 68 68 68 67 66 67 68
65 66 65 65 67 67 68 70 72 73 73 72 72 72 72 72 72 71 71 70 70 69 69 68 67 67 67 66 67 67 66 66 65 64 65 65 66 66 66 65 66 67 67 68 69 69 69 69 69 69 68 69 69 68 68 67 69 69 70 70 70 71 72 73 67 62 59 61 60 63 63 64 69 68 67 68 69 68 69 68 68 68 68 68 68
64 64 64 63 64 67 69 70 71 72 72 72 72 72 72 71 71 71 70 69 69 68 68 67 67 66 66 66 66 66 66 66 65 65 64 65 65 66 65 66 66 67 68 68 69 68 69 68 68 68 68 68 68 68 68 69 68 69 69 69 70 70 72 72 68 62 60 61 62 65 66 69 69 67 67 67 67 68 68 68 68 69 69 68 68
64 64 63 64 64 66 66 70 71 71 71 71 71 71 72 71 71 70 70 69 69 68 68 67 67 67 66 66 66 66 66 66 65 65 65 65 65 66 66 67 67 67 68 68 68 68 67 67 66 67 67 67 68 68 68 69 69 69 67 69 69 70 71 71 65 60 60 62 64 65 68 70 69 68 68 67 67 67 68 68 68 69 69 68 68
64 65 65 65 66 66 67 69 70 70 71 71 71 71 71 71 71 70 70 69 69 68 68 68 67 68 68 67 66 66 66 65 66 65 65 65 65 66 67 67 67 68 68 68 68 67 67 66 67 67 68 68 68 68 69 69 69 70 70 69 70 71 69 67 61 61 62 65 66 67 70 70 70 70 70 69 68 68 68 68 68 68 68 68 68
67 66 65 66 66 66 68 68 69 70 70 71 71 71 71 71 70 70 70 70 69 68 68 68 68 68 67 68 67 66 67 67 66 64 66 65 67 67 68 68 67 67 68 68 67 67 67 68 68 69 70 69 70 70 70 70 70 70 71 71 71 69 67 66 65 64 62 65 66 69 72 71 71 71 70 70 70 69 69 68 68 68 68 69 69
64 64 65 64 64 63 62 68 69 70 71 71 71 71 70 70 69 70 69 69 68 69 68 67 69 68 68 68 68 68 67 65 66 67 66 66 66 67 67 67 66 67 68 68 68 68 69 69 70 70 69 70 71 70 68 70 71 71 71 71 70 68 67 66 68 63 65 66 69 71 72 72 71 71 71 71 70 70 69 68 68 68 69 69 69
63 64 65 65 64 63 65 68 67 69 71 70 70 71 69 69 69 68 68 69 68 68 67 66 66 66 67 68 70 70 68 67 68 65 68 68 67 68 66 67 68 67 69 68 69 69 69 70 70 71 71 71 70 68 65 63 66 70 71 71 69 68 69 70 69 65 66 68 69 71 71 71 71 71 70 70 70 69 69 69 68 69 69 69 69
63 64 64 64 62 62 65 67 67 71 70 69 70 70 69 69 69 68 67 67 67 65 66 66 63 64 66 69 70 70 70 71 67 67 66 65 67 67 67 68 68 69 68 70 69 70 70 71 71 71 71 69 66 63 61 62 64 66 67 67 67 70 69 71 71 67 67 68 69 71 71 71 70 70 70 70 70 70 70 69 68 69 69 69 69
64 63 64 64 61 65 66 68 69 71 71 70 69 69 69 69 68 67 66 65 65 67 66 66 67 64 67 71 70 71 69 71 71 69 66 66 65 67 68 68 67 67 70 68 67 64 69 67 66 68 67 64 61 61 63 63 66 66 66 68 67 68 69 70 70 67 67 68 68 69 69 70 70 70 70 70 70 70 70 70 69 69 69 69 69
64 62 62 63 62 66 67 69 70 71 71 69 69 68 69 68 68 67 66 65 66 66 65 66 67 72 70 70 71 71 70 69 69 70 70 71 66 66 65 67 66 65 67 66 70 71 68 67 67 66 65 71 67 69 66 69 67 71 66 66 66 67 68 69 67 66 67 66 66 68 68 68 68 69 70 70 70 70 70 70 70 69 69 68 68
62 61 61 61 65 66 66 69 70 70 70 70 70 69 68 68 67 67 66 65 65 65 67 70 70 71 72 70 71 70 72 71 71 71 71 72 71 72 72 72 71 71 72 71 70 71 72 71 70 70 68 66 65 65 69 68 68 64 67 66 65 66 67 68 66 66 65 65 66 66 66 66 66 67 68 69 69 69 70 69 69 69 69 68 67
62 62 60 61 65 62 65 67 68 68 70 70 70 68 68 67 68 67 66 66 67 66 68 69 70 70 71 73 72 72 72 71 71 70 70 71 69 69 70 70 71 70 71 70 68 71 71 70 69 67 68 65 63 64 67 66 68 67 64 65 62 65 66 66 64 65 65 64 64 65 65 65 65 65 66 67 68 68 68 69 68 68 68 67 67
62 61 60 62 62 64 65 63 65 67 68 70 69 68 67 68 68 68 67 67 67 67 70 68 70 69 71 71 71 71 71 71 70 69 70 70 70 69 70 70 69 70 70 69 70 71 71 71 70 68 67 67 67 67 64 63 64 66 62 62 63 62 63 65 63 64 64 64 63 64 64 64 63 63 64 65 66 66 67 67 67 67 67 67 66
63 62 61 63 61 62 64 62 65 66 68 68 67 67 68 68 68 67 71 66 71 67 69 71 71 70 70 70 73 71 69 69 69 70 70 69 70 70 70 68 69 70 70 69 70 70 71 72 69 70 69 67 66 66 68 66 59 61 60 61 64 64 63 64 62 63 64 63 63 63 63 62 61 61 61 62 62 63 64 65 65 65 66 66 66
64 63 61 63 63 61 64 63 67 69 68 66 68 68 68 68 68 68 68 66 71 71 68 69 68 70 69 71 70 71 70 70 70 69 70 69 69 68 67 69 69 68 69 69 70 70 71 71 68 67 65 65 65 67 64 65 62 59 60 57 60 61 61 62 60 63 63 63 61 60 60 61 60 59 58 58 58 59 61 62 64 63 64 64 65
64 63 62 64 64 62 61 65 67 70 69 68 68 68 68 68 69 68 67 67 70 70 68 69 71 70 70 71 73 71 70 70 69 69 69 69 69 69 69 69 69 69 69 68 71 69 69 67 67 66 69 70 70 68 69 65 61 59 57 57 59 58 59 59 58 58 63 62 60 59 58 58 60 58 57 56 56 55 56 59 60 61 61 62 63
63 64 63 65 64 66 64 65 67 69 69 69 69 68 69 68 68 68 67 68 69 69 69 70 71 70 71 71 70 71 72 71 70 69 69 69 69 69 69 69 68 67 68 68 67 68 67 69 70 67 70 69 67 67 66 67 61 60 59 57 56 56 57 57 58 58 57 60 61 59 57 56 55 57 57 56 54 53 52 52 55 57 58 59 61
63 62 65 64 64 67 65 67 68 68 69 70 70 68 69 68 68 68 68 68 69 69 69 70 71 70 70 70 70 70 71 71 69 69 69 69 69 68 69 69 69 68 68 68 69 67 67 67 67 68 68 66 65 65 65 66 62 60 58 57 58 58 56 55 58 57 57 56 57 58 57 56 53 53 53 54 54 53 52 51 52 54 54 56 56
64 63 65 65 64 67 67 66 69 69 69 70 69 69 70 68 66 66 68 69 69 69 71 70 71 69 67 70 70 71 70 69 69 69 69 69 67 68 68 69 68 69 68 68 68 66 68 67 67 67 68 69 64 66 62 61 60 58 59 59 57 56 56 54 53 52 54 55 53 52 52 50 52 53 52 52 55 53 52 51 52 51 53 53 54
65 65 66 65 64 67 67 67 69 69 69 69 69 69 69 70 67 66 69 70 69 68 70 70 68 69 68 69 69 70 70 69 69 69 70 70 68 68 69 68 68 68 68 66 66 67 67 68 66 66 67 65 63 64 62 61 59 58 58 57 56 55 54 53 53 50 49 50 49 50 49 48 49 49 52 49 51 54 53 52 51 52 52 53 53
67 66 66 65 64 66 67 68 68 69 69 69 69 70 70 68 68 68 68 69 69 69 69 71 70 68 69 69 70 70 69 69 69 68 69 69 69 68 69 69 69 68 67 68 67 65 66 66 67 65 64 65 63 61 62 61 59 58 57 56 55 56 54 53 52 51 53 48 48 44 46 47 50 51 47 46 47 52 53 53 52 52 53 52 53
67 67 67 65 64 65 67 68 68 68 69 69 69 69 69 68 69 67 69 67 69 69 69 70 68 69 69 70 69 70 70 68 68 68 70 69 69 69 69 69 69 71 68 68 68 68 66 66 66 66 64 64 63 62 60 59 58 57 55 54 55 54 53 54 52 54 50 48 48 46 47 49 48 47 47 45 46 46 51 54 53 52 52 52 52
67 67 66 65 64 66 67 68 68 69 69 69 69 69 69 69 68 68 67 68 69 69 70 70 68 69 69 69 69 70 69 68 67 68 68 69 68 69 69 68 69 71 68 65 66 66 67 66 66 65 66 63 62 64 62 60 56 56 54 55 54 53 53 53 53 50 50 51 49 48 47 47 44 46 46 46 46 47 47 48 49 48 50 50 50
67 67 66 65 65 66 67 68 68 68 69 69 68 67 67 66 65 66 66 66 67 68 70 69 70 68 68 69 68 69 68 69 68 67 68 68 68 69 69 66 66 67 65 65 63 65 64 64 63 63 65 61 64 63 58 56 56 56 56 55 56 55 53 53 52 50 51 47 47 48 48 47 46 45 43 46 45 46 45 46 51 43 46 47 46
67 66 65 65 66 65 66 67 68 68 68 68 67 66 65 65 66 65 66 67 65 67 68 69 68 68 68 68 68 69 69 67 67 67 67 67 67 66 66 67 66 64 66 66 63 63 64 64 64 63 62 61 63 62 58 57 57 56 56 55 54 55 56 53 51 49 46 47 47 48 48 48 46 47 45 49 44 47 46 42 44 44 43 44 49
66 66 65 65 66 66 66 67 67 67 68 68 68 68 67 65 65 64 65 65 65 65 67 68 68 68 68 68 68 68 68 66 66 65 66 65 66 66 66 65 64 66 68 65 65 64 63 62 64 62 64 65 62 62 60 58 56 54 54 54 54 53 54 52 50 48 48 46 48 50 49 47 46 46 49 46 41 38 38 43 44 46 45 44 44
67 65 66 66 66 66 66 67 67 67 67 67 67 67 68 68 66 66 65 64 65 67 67 66 67 67 68 67 67 68 66 63 64 65 64 64 65 65 65 65 64 65 64 64 63 64 63 64 62 60 58 60 62 62 63 63 57 56 56 53 51 50 52 50 50 48 47 47 46 45 46 40 35 40 47 46 44 43 40 40 43 45 47 47 45
66 66 66 66 66 66 67 67 67 67 67 67 66 67 67 68 68 67 67 66 65 66 66 66 66 65 65 65 65 65 64 64 63 63 62 63 65 66 65 64 64 64 63 65 63 62 63 64 64 62 59 57 56 57 60 60 60 58 53 54 53 52 46 47 47 47 45 44 45 47 47 45 42 41 46 38 37 44 46 40 42 48 46 47 47
67 66 67 66 66 66 67 67 67 67 67 67 67 67 67 67 67 68 67 66 66 65 64 64 65 65 64 64 64 64 63 65 66 62 61 63 62 64 64 62 62 64 64 63 62 62 64 62 61 64 59 61 55 57 57 58 56 56 55 55 55 54 53 44 42 46 45 43 44 47 45 47 44 43 44 36 37 37 38 40 45 47 47 46 45
67 67 67 67 66 66 67 67 67 67 66 67 67 67 65 66 66 65 64 64 63 63 63 63 63 62 61 64 62 62 62 64 65 62 59 61 61 62 63 60 62 63 66 61 63 64 62 61 59 60 60 57 54 53 52 55 56 54 54 57 56 54 51 42 44 45 48 47 46 41 42 45 47 45 44 36 33 39 43 39 50 48 47 44 45
67 67 67 67 67 66 66 67 66 66 66 66 66 66 65 66 65 64 64 64 63 63 65 64 63 62 63 63 62 64 61 63 65 63 60 63 61 62 62 61 59 61 61 62 61 61 58 57 58 58 57 60 60 50 51 49 52 53 54 52 53 57 54 51 49 40 40 45 44 43 44 39 46 44 41 36 38 45 48 43 41 41 43 44 44
67 67 68 68 67 66 66 66 66 66 65 65 65 66 66 66 66 64 64 64 63 63 64 64 64 63 62 61 61 63 62 63 63 62 60 59 60 61 61 61 59 57 58 59 58 58 56 56 57 58 57 56 56 55 51 51 49 49 53 53 53 52 51 53 51 52 46 40 42 44 45 44 44 49 44 40 38 45 49 48 36 34 43 39 40
66 66 67 66 66 67 66 66 66 66 66 65 65 66 66 66 66 64 64 64 64 64 64 63 63 63 62 62 61 59 62 63 60 61 58 57 61 59 59 58 59 56 54 56 56 53 55 56 56 55 55 55 55 55 54 53 52 52 55 49 49 48 49 49 49 52 46 47 40 40 42 45 47 45 46 44 43 43 44 46 41 41 43 44 42
66 66 66 66 66 67 66 66 66 66 66 65 66 66 66 66 65 65 64 64 64 63 62 62 62 62 61 61 62 63 60 62 63 57 62 56 57 58 55 55 57 52 52 52 53 53 54 53 54 55 54 54 54 53 53 53 52 51 51 52 53 53 50 47 46 43 47 45 44 39 42 42 43 44 46 45 43 41 43 42 43 38 38 40 39
66 66 66 65 64 66 66 66 66 66 66 66 66 66 66 66 65 65 65 64 63 63 62 61 61 61 60 60 62 62 60 61 61 61 59 57 57 56 55 52 55 57 52 48 52 50 52 53 52 53 53 53 53 52 51 51 50 50 48 48 48 48 47 46 45 46 45 45 44 42 39 37 43 41 43 42 42 42 41 42 40 38 38 38 38